Flag for Brazil Weather past 2 weeks in Rio Branco, Acre, Brazil

Now
73 °F

Passing clouds.


Feels Like: 73 °F
Forecast: 73 / 87 °F
Wind: 7 mph from Northeast

Location: Rio Branco Airport

Current Time: Mar 1, 2015 at 8:06:09 PM

Latest Report: Mar 1, 2015 at 7:00 PM


Visibility: N/A

Pressure: 29.83 "Hg

Humidity: 83%

Dew point: 68 °F

Location of Rio BrancoLocation

Historic Weather in Rio Branco — Graph

°F

Rio Branco temperature yesterday

Maximum temperature yesterday: 77 °F (at 4:00 PM)
Minimum temperature yesterday: 70 °F (at 12:00 PM)
Average temperature yesterday: 73 °F

Past Weeks' High & Low Weather Summary

 TemperatureHumidityPressure
High90 °F (Feb 15, 4:00 PM)100% (Feb 14, 7:00 PM)29.98 "Hg (Feb 14, 7:00 PM)
Low37 °F (Feb 14, 7:00 PM)29% (Feb 26, 4:00 AM)29.71 "Hg (Feb 16, 3:00 PM)
Average75 °F87%29.86 "Hg
* Reported Feb 14 7:00 PM — Mar 1 7:00 PM, Rio Branco, Weather by CustomWeather, © 2015

Note: Actual official high and low records may vary slightly from our data, if they occured in-between our weather recording intervals... More about our weather records

Advertising

Rio Branco weather history for previous 24 hours

 ConditionsComfort  
Time TempWeatherWind HumidityBarometerVisibility
7:00 PM
Sun, Mar 1
73 °FPassing clouds.7 mph83%29.83 "HgN/A
6:00 PM75 °FScattered clouds.5 mph78%29.80 "HgN/A
5:00 PM75 °FScattered showers. Partly sunny.3 mph78%N/AN/A
4:00 PM79 °FScattered showers. Broken clouds.10 mph74%N/AN/A
3:00 PMN/ALight rain.14 mphN/AN/AN/A
2:00 PM77 °FThunderstorms. Broken clouds.5 mph83%29.86 "HgN/A
1:00 PM82 °FScattered showers. Broken clouds.8 mph70%N/AN/A
12:00 PM82 °FScattered showers. Partly sunny.3 mph66%29.95 "HgN/A
11:00 AM82 °FBroken clouds.5 mph70%29.98 "HgN/A
10:00 AM81 °FBroken clouds.5 mph70%29.98 "HgN/A
9:00 AM77 °FBroken clouds.5 mph79%29.98 "HgN/A
8:00 AM75 °FBroken clouds.3 mph83%29.98 "HgN/A
7:00 AM73 °FBroken clouds.2 mph89%29.95 "HgN/A
6:00 AM72 °FPartly cloudy.2 mph94%29.92 "HgN/A
5:00 AM72 °FPassing clouds.2 mph94%29.92 "HgN/A
4:00 AM72 °FPassing clouds.1 mph94%29.89 "HgN/A
3:00 AM72 °FPassing clouds.2 mph94%29.89 "Hg6 mi
2:00 AM72 °FFog.3 mph94%29.89 "Hg1 mi
1:00 AM72 °FFog.3 mph94%29.92 "Hg1 mi
12:00 AM72 °FPartly cloudy.1 mph94%29.92 "HgN/A
11:00 PM
Sat, Feb 28
72 °FPartly cloudy.1 mph94%29.95 "HgN/A
10:00 PM72 °FPartly cloudy.2 mph94%29.95 "HgN/A
9:00 PM72 °FPartly cloudy.1 mph100%29.95 "HgN/A
8:00 PM72 °FPartly cloudy.2 mph100%29.89 "HgN/A
Weather by CustomWeather, © 2015

See weather overviewHow to use our weather pages